Location: Nitra
(48.3167°N, 18.0833°E)
Time: 16:52:13
(UTC+01:00)

ISS - Pass Details

Date: 27 February 2019
Orbit: 406 x 411 km, 51.6° (Epoch: 18 March)

Event Time Altitude Azimuth Distance (km) Brightness Sun altitude
Exits shadow 04:45:49 21° 181° (S) 959 -2.1 -18.7°
Maximum altitude 04:47:03 28° 143° (SE) 800 -2.1 -18.5°
Drops below altitude 10° 04:49:55 10° 83° (E) 1,468 0.3 -18.0°
Sets 04:52:11 0° 71° (ENE) 2,332 1.6 -17.6°
